Dewpoint
75 73 73 72 59 59 53 55 60 58 58 61 61 59 61 62 59 56 70 72 72 72 74 76 77 76 76 76 76 76 76 76 76 76 76 76 75 76 75 75 75 74 74 74 73 74 74 73 73
73 72 73 69 56 52 53 55 58 58 60 60 60 61 61 61 65 68 68 72 72 72 74 76 77 77 75 76 75 76 76 76 76 75 75 74 75 75 75 75 74 74 73 73 73 73 73 73 73
71 70 66 63 55 50 53 57 58 58 59 60 61 62 61 63 66 68 70 72 72 72 74 74 76 76 76 76 76 76 76 76 74 74 75 74 74 73 73 73 73 73 74 74 73 72 72 72 72
64 69 67 59 49 49 52 58 59 59 60 61 61 61 65 68 67 69 71 72 71 73 75 76 76 76 76 76 76 75 74 73 73 75 75 74 75 75 74 74 74 74 73 72 71 71 71 72 72
62 67 59 55 50 53 56 58 59 59 60 60 61 61 63 68 70 70 71 70 71 72 74 75 77 76 76 76 75 73 75 75 75 75 75 75 75 75 74 74 74 73 72 72 71 72 72 72 73
60 61 54 46 52 57 59 61 61 61 61 61 60 61 65 69 69 70 70 71 71 73 74 75 76 76 76 76 75 74 76 75 75 75 75 75 74 75 74 73 73 73 73 73 72 72 72 73 73
59 52 49 50 55 56 59 60 59 60 60 60 61 60 66 68 69 70 70 71 72 73 73 74 74 75 75 75 74 73 75 75 75 74 75 75 74 73 73 73 73 73 73 73 73 72 73 73 74
55 51 46 50 52 54 58 59 61 60 59 62 63 61 63 66 69 69 70 71 71 72 73 73 73 74 74 74 75 74 74 74 74 73 74 74 74 73 73 75 75 74 73 73 73 73 73 74 74
52 48 46 50 51 54 58 58 60 62 61 61 62 62 64 68 67 68 69 70 70 71 71 72 72 73 73 73 75 76 75 74 73 72 73 74 74 72 73 74 74 74 72 72 72 73 71 70 71
48 46 45 49 55 56 58 59 60 61 61 62 62 64 66 65 66 66 67 66 67 68 70 71 71 72 72 72 72 72 73 72 72 72 72 72 72 72 72 74 75 74 73 74 75 74 73 70 70
46 38 44 52 54 57 58 58 60 61 60 62 61 63 63 64 64 65 66 66 67 68 70 70 71 70 69 71 72 72 72 72 72 68 68 72 73 72 73 72 68 69 73 74 74 72 66 68 67
38 40 44 46 54 55 56 59 60 61 61 63 62 62 62 62 63 63 65 65 66 67 67 69 70 70 70 71 70 71 72 70 70 72 72 73 72 72 71 70 71 72 73 72 72 70 67 68 69
37 39 46 54 57 57 59 59 60 62 63 63 62 61 61 61 60 62 63 63 64 64 64 65 68 69 66 66 67 69 70 70 69 70 73 73 72 71 72 72 72 71 73 71 72 69 68 68 69
38 40 46 53 56 59 59 60 60 62 63 62 62 61 61 61 60 61 60 60 60 61 62 64 69 69 64 65 65 67 69 70 71 71 73 73 73 72 72 70 66 64 72 72 71 71 69 70 71
45 37 42 52 53 55 59 58 59 62 62 62 61 61 61 60 60 60 59 58 59 60 62 64 69 69 69 69 68 69 70 70 68 72 73 71 71 72 73 70 66 64 70 71 70 70 72 71 70
44 45 37 40 52 54 54 56 60 61 61 62 62 62 62 62 62 62 60 57 58 59 61 65 68 67 67 71 70 69 69 69 67 68 70 71 71 72 72 70 68 67 64 68 71 70 70 68 67
46 41 42 41 46 52 53 56 59 61 60 59 58 61 61 62 62 62 62 60 59 59 62 68 67 66 67 69 68 67 70 69 66 66 66 70 70 72 71 71 71 70 68 71 71 70 69 68 66
40 40 43 43 44 49 51 53 59 60 59 59 59 60 60 60 61 62 62 62 62 63 65 67 65 65 68 68 67 69 69 68 68 67 66 68 69 69 71 72 72 72 71 71 69 68 70 69 68
40 40 43 45 45 46 47 54 57 58 59 59 59 59 60 60 62 62 63 63 63 64 65 66 65 64 67 67 66 66 65 65 66 66 68 67 66 69 72 73 71 72 71 70 70 70 68 68 69
39 41 41 43 44 44 50 53 55 57 59 59 59 59 60 60 61 62 63 62 62 64 65 65 66 65 67 67 67 67 66 67 67 68 68 68 68 68 71 72 71 73 71 71 71 69 68 69 68
39 40 39 39 41 42 46 47 52 55 57 58 59 59 60 60 60 62 63 62 62 62 63 65 66 65 67 68 68 68 70 68 67 65 65 65 67 69 70 72 72 73 72 71 71 70 69 68 69
38 40 40 39 40 36 41 38 46 49 53 56 58 58 59 60 61 62 63 62 62 62 63 64 66 66 67 68 68 67 66 67 66 65 65 66 69 69 69 72 69 69 71 71 72 72 70 69 67
34 39 39 39 37 35 40 39 40 43 47 51 55 57 57 59 60 62 62 63 63 63 63 66 66 66 68 67 68 68 67 67 67 68 68 67 68 70 72 71 64 64 68 67 71 71 70 68 67
37 35 35 34 32 26 38 38 39 41 41 48 53 55 55 57 60 61 62 63 63 63 64 66 67 67 68 70 68 67 67 68 69 68 67 69 69 71 72 66 66 66 66 66 70 71 69 68 68
34 31 26 23 19 20 24 33 39 42 41 46 50 53 53 56 60 61 62 62 63 63 64 66 66 66 68 69 69 69 67 67 67 67 67 67 68 69 71 66 67 68 67 69 71 69 68 68 67
25 25 26 22 22 21 25 23 27 43 42 44 49 50 50 56 57 59 61 62 63 63 64 65 66 66 67 68 70 69 69 70 71 71 71 70 69 70 71 71 70 70 70 70 69 69 68 68 67
26 25 27 25 30 24 25 30 39 43 41 42 45 45 48 55 57 59 60 60 62 63 64 66 67 66 68 69 70 72 71 71 71 71 71 70 69 70 72 71 71 70 70 69 68 67 64 63 62
25 26 22 24 25 24 25 29 32 41 40 41 44 44 47 53 56 59 60 61 61 62 62 66 68 69 70 71 71 71 73 73 72 72 71 73 73 73 72 71 70 70 68 65 64 61 61 59 59
24 26 23 24 26 22 22 25 35 41 41 40 44 44 46 49 52 56 58 59 61 62 62 63 67 69 71 71 72 72 72 73 73 72 71 72 72 71 71 69 67 64 61 60 58 57 57 56 56
23 23 23 24 21 25 25 25 30 36 37 41 42 44 47 48 49 54 56 58 60 60 61 62 67 69 70 71 71 72 72 72 72 72 73 73 71 71 68 65 61 59 56 55 54 54 54 54 55
Lifted_Index
-5 -5 -5 -4 -2 -1 -1 -1 -2 -2 -2 -2 -2 -1 -1 -1 -1 -0 -0 -1 -1 -1 -2 -3 -3 -3 -3 -3 -3 -4 -4 -4 -4 -4 -4 -4 -4 -4 -4 -4 -4 -4 -4 -4 -4 -4 -4 -4 -4
-4 -4 -4 -3 -2 -0 -1 -1 -2 -2 -2 -2 -1 -1 -1 -1 -1 -0 -0 -1 -1 -2 -2 -3 -3 -3 -3 -3 -3 -4 -4 -4 -4 -4 -4 -4 -4 -4 -4 -4 -4 -4 -4 -4 -4 -4 -4 -4 -4
-4 -4 -4 -2 -1 -0 -1 -1 -2 -2 -2 -1 -1 -1 -0 -0 -0 -0 -0 -1 -1 -2 -3 -3 -3 -3 -3 -3 -3 -4 -4 -4 -4 -4 -4 -4 -4 -4 -3 -3 -4 -4 -4 -4 -4 -4 -4 -4 -4
-5 -4 -3 -1 -0 -0 -1 -2 -2 -2 -2 -1 -1 -0 -0 -0 -0 -0 -0 -1 -1 -2 -3 -3 -3 -3 -3 -3 -3 -3 -3 -3 -3 -4 -4 -4 -4 -4 -4 -4 -4 -4 -4 -4 -4 -4 -4 -4 -4
-5 -4 -3 -1 -1 -1 -2 -2 -2 -1 -1 -1 -1 -0 -0 -0 0 0 -0 -1 -1 -2 -3 -3 -4 -4 -4 -4 -3 -3 -3 -4 -4 -4 -4 -4 -4 -4 -4 -4 -4 -4 -4 -4 -4 -4 -4 -4 -4
-4 -3 -2 -1 -1 -2 -2 -2 -1 -1 -1 -1 -1 -0 -0 -0 0 0 -0 -1 -2 -2 -3 -3 -4 -4 -4 -4 -3 -3 -4 -5 -5 -5 -5 -5 -5 -4 -4 -4 -4 -4 -4 -4 -4 -4 -4 -5 -5
-2 -1 -1 -1 -1 -2 -2 -2 -1 -1 -1 -1 -0 -0 -0 -0 0 0 -1 -2 -2 -3 -3 -3 -3 -4 -4 -4 -3 -3 -4 -5 -5 -5 -5 -5 -5 -5 -4 -4 -4 -4 -4 -4 -5 -5 -5 -5 -6
-2 -1 -0 -1 -2 -2 -2 -1 -1 -0 -0 -0 -0 -0 -0 -0 -0 -0 -1 -2 -2 -2 -2 -2 -3 -3 -3 -4 -4 -4 -4 -5 -5 -5 -5 -6 -5 -5 -4 -5 -5 -5 -5 -5 -5 -5 -5 -5 -5
-1 -0 -0 -1 -2 -2 -2 -1 -1 -0 -0 -1 -1 -0 -0 -0 -0 -1 -1 -2 -2 -2 -2 -2 -2 -3 -3 -4 -4 -4 -4 -4 -4 -5 -5 -5 -5 -4 -4 -5 -5 -5 -5 -5 -5 -4 -3 -3 -3
-0 -0 -0 -1 -1 -2 -2 -1 -1 -1 -0 -0 -0 -0 -0 -0 -0 -1 -1 -1 -1 -1 -1 -2 -2 -3 -3 -3 -3 -3 -4 -4 -4 -4 -4 -4 -4 -4 -4 -4 -5 -5 -5 -5 -5 -4 -3 -1 -1
-0 -0 -0 -1 -1 -1 -2 -1 -1 -1 -0 0 0 0 -0 -0 -0 -0 -0 -0 -0 -1 -1 -2 -3 -2 -2 -2 -2 -3 -3 -4 -3 -3 -4 -4 -4 -4 -4 -4 -4 -4 -4 -5 -5 -4 -2 -1 -1
-0 -0 -0 -1 -1 -1 -1 -1 -1 -1 -0 0 1 0 0 -0 -0 0 0 0 0 -0 -1 -2 -2 -2 -2 -2 -2 -2 -3 -3 -3 -4 -4 -4 -4 -4 -4 -4 -4 -4 -4 -4 -4 -4 -2 -2 -2
-0 -0 -0 -1 -2 -1 -1 -1 -1 -1 -0 0 1 1 0 0 0 0 1 1 1 0 -0 -1 -2 -1 -1 -2 -2 -2 -2 -3 -3 -4 -4 -4 -4 -4 -4 -4 -4 -4 -4 -4 -4 -4 -3 -3 -3
0 0 -0 -2 -2 -2 -2 -1 -1 -1 -0 0 1 1 1 1 1 1 1 2 2 2 1 0 -1 -1 -1 -1 -1 -1 -2 -2 -3 -4 -4 -4 -4 -5 -5 -4 -4 -3 -3 -4 -4 -4 -4 -4 -4
1 1 0 -1 -2 -2 -2 -1 -1 -1 -0 -0 0 1 1 1 1 1 2 3 3 3 2 1 0 -0 -0 -0 -1 -1 -2 -2 -3 -3 -4 -4 -4 -4 -5 -4 -4 -3 -3 -4 -4 -4 -4 -4 -4
1 1 0 -0 -1 -1 -1 -1 -1 -1 -0 -0 0 0 1 1 1 2 2 3 4 4 3 2 1 0 -0 -1 -1 -1 -1 -2 -2 -2 -2 -3 -4 -4 -4 -4 -4 -4 -4 -4 -4 -4 -4 -4 -4
0 0 0 0 -0 -1 -1 -1 -1 -1 -0 -0 0 0 0 1 1 1 2 2 3 3 3 2 0 0 -0 -0 -1 -1 -1 -1 -1 -1 -1 -2 -3 -4 -4 -5 -5 -5 -4 -4 -4 -4 -4 -4 -4
0 0 0 0 0 -0 -1 -1 -2 -1 -1 -0 0 0 0 1 1 1 1 2 3 3 2 1 0 0 0 0 0 -0 -1 -1 -1 -1 -1 -2 -2 -3 -4 -5 -5 -5 -5 -5 -4 -4 -4 -4 -4
1 0 0 0 0 -0 -1 -2 -2 -2 -1 -1 0 0 0 1 1 1 1 2 2 2 2 1 1 0 0 0 0 -0 -1 -1 -1 -1 -1 -2 -2 -3 -4 -5 -5 -6 -5 -5 -5 -4 -4 -4 -4
1 1 0 0 -0 -0 -1 -2 -2 -2 -2 -1 -0 0 0 1 1 1 1 1 1 1 1 1 1 1 1 1 0 -0 -1 -1 -1 -1 -2 -2 -2 -3 -4 -5 -6 -6 -6 -6 -6 -5 -4 -4 -4
1 1 0 -0 -0 0 -0 -1 -2 -2 -1 -1 -1 -0 0 0 0 1 1 1 1 1 1 1 1 1 1 0 0 -0 -1 -1 -2 -2 -2 -2 -3 -3 -4 -5 -6 -6 -6 -6 -6 -6 -5 -5 -4
0 0 0 -0 -0 0 0 -0 -1 -1 -1 -1 -1 -0 -0 -0 0 1 1 1 1 1 1 1 1 1 1 0 -0 -0 -1 -1 -2 -2 -2 -3 -3 -4 -5 -5 -5 -5 -5 -5 -5 -5 -5 -5 -4
0 0 0 0 0 0 0 -0 -0 0 0 0 -0 -0 -0 -0 0 0 0 0 1 1 1 1 1 1 0 -0 -0 -0 -1 -1 -2 -3 -3 -3 -4 -5 -5 -5 -5 -4 -4 -4 -4 -5 -5 -4 -4
0 0 0 0 0 0 -0 -0 0 0 1 1 1 0 0 0 0 0 0 0 0 0 1 1 1 0 -0 -1 -1 -1 -1 -2 -2 -3 -3 -4 -4 -5 -5 -5 -5 -5 -4 -4 -4 -5 -4 -4 -3
0 0 0 -0 -0 -0 -0 -0 0 0 1 1 1 1 1 1 1 0 0 -0 0 0 0 0 0 0 -0 -1 -1 -2 -2 -2 -3 -4 -4 -4 -4 -5 -5 -5 -5 -5 -5 -5 -5 -4 -3 -3 -2
1 1 0 -0 -0 -0 -0 -0 0 0 1 1 2 2 2 1 1 1 0 -0 -0 -0 -0 -0 0 -0 -0 -1 -2 -2 -3 -3 -4 -5 -5 -5 -5 -5 -5 -6 -5 -5 -5 -5 -4 -3 -2 -1 -0
1 0 -0 -0 -0 -1 -0 -0 -0 0 1 1 2 2 2 2 1 1 0 0 0 -0 -0 -0 -0 -1 -1 -2 -2 -3 -4 -5 -6 -6 -6 -6 -6 -6 -6 -6 -6 -6 -5 -4 -3 -2 -0 0 1
0 0 -0 -0 -0 -0 -0 -1 -1 -0 1 1 1 2 2 2 2 1 1 0 0 0 0 -0 -1 -2 -2 -3 -4 -5 -6 -6 -7 -7 -7 -7 -7 -7 -7 -7 -6 -5 -4 -3 -1 -0 1 2 2
0 -0 -0 -0 -0 -0 -0 -1 -0 -0 0 1 1 1 2 2 2 1 1 1 0 0 0 -0 -1 -2 -3 -4 -5 -5 -6 -7 -7 -7 -7 -7 -8 -8 -7 -7 -6 -5 -3 -1 0 1 2 3 4
0 -0 -0 -0 -0 -0 -0 -0 -0 -0 0 0 1 1 2 2 2 2 1 1 0 0 -0 -1 -1 -2 -3 -4 -5 -6 -6 -7 -7 -7 -7 -7 -8 -8 -7 -7 -6 -4 -2 0 1 2 4 5 6